SCP
0 0 -0 -0 0 0 0 -0 0 0 0 0 0 0 -0 -0 -0 -0 0 0 -0 -0 -0 0 -0 -0 -0 0 0 -0 -0 -0 -0 -0 -0 -0 0 0 0 0 0 -0 -0
-0 -0 0 0 0 0 -0 0 0 0 0 0 0 0 0 -0 0 0 0 0 -0 -0 0 -0 -0 -0 -0 -0 -0 -0 0 -0 0 -0 -0 -0 0 0 -0 -0 -0 0 -0
-0 -0 -0 0 -0 -0 -0 -0 -0 0 0 0 0 0 0 0 0 0 0 0 -0 -0 0 0 -0 -0 -0 0 0 0 -0 0 0 0 -0 -0 -0 0 0 -0 -0 -0 -0
-0 -0 -0 0 -0 -0 0 0 0 0 0 0 0 0 0 0 0 0 0 -0 0 0 0 -0 -0 -0 -0 0 -0 -0 0 0 0 -0 -0 0 0 0 0 0 0 0 -0
-0 -0 -0 -0 -0 0 0 0 0 0 0 0 0 0 0 -0 0 -0 -0 0 0 0 0 -0 -0 -0 -0 0 -0 -0 0 0 0 0 -0 0 -0 0 0 0 0 0 0
-0 -0 -0 -0 -0 -0 -0 0 0 0 0 0 0 0 0 -0 0 -0 0 0 0 0 0 -0 -0 -0 -0 -0 0 0 0 0 0 -0 -0 -0 0 -0 0 0 -0 -0 -0
-0 -0 -0 -0 0 0 -0 -0 0 0 0 0 0 0 0 0 0 0 0 0 0 0 -0 -0 -0 -0 -0 0 0 -0 0 0 -0 -0 0 -0 0 -0 -0 -0 -0 -0 -0
-0 -0 -0 -0 0 -0 -0 0 -0 0 -0 0 0 0 0 0 0 0 -0 -0 -0 -0 -0 -0 -0 -0 -0 0 0 -0 0 0 -0 -0 -0 -0 0 0 -0 -0 -0 -0 0
-0 -0 -0 -0 0 -0 0 0 0 -0 0 0 0 0 0 0 0 -0 -0 -0 -0 -0 -0 -0 -0 -0 -0 0 0 -0 0 -0 -0 -0 -0 -0 -0 -0 -0 -0 -0 -0 0
0 -0 0 0 -0 0 0 -0 -0 0 0 0 0 -0 -0 -0 0 0 0 -0 -0 -0 -0 -0 -0 -0 -0 0 0 0 0 0 0 0 -0 0 -0 -0 -0 -0 -0 -0 -0
0 0 0 -0 -0 -0 -0 -0 -0 -0 0 -0 -0 -0 0 0 0 -0 -0 -0 -0 -0 -0 -0 -0 -0 -0 -0 0 -0 0 0 -0 -0 -0 -0 -0 -0 -0 -0 -0 0 0
0 0 0 0 -0 0 0 0 0 0 0 0 0 -0 -0 -0 -0 0 0 -0 -0 -0 -0 -0 -0 -0 -0 -0 0 0 -0 -0 0 0 -0 -0 -0 -0 -0 -0 -0 -0 -0
0 0 0 0 -0 0 0 -0 0 0 0 0 0 0 -0 0 -0 -0 0 -0 -0 0 -0 -0 0 -0 0 -0 0 0 -0 -0 0 0 -0 -0 -0 -0 -0 -0 -0 -0 -0
-0 0 0 -0 0 0 0 0 0 0 -0 0 0 -0 -0 0 -0 0 0 0 0 0 0 -0 0 -0 -0 -0 0 -0 -0 0 0 0 -0 -1 -0 -0 -0 -0 -0 -0 -0
0 0 -0 0 0 0 0 0 0 -0 -0 0 -0 -0 -0 -0 0 0 0 0 0 -0 -0 -0 0 0 -0 -0 -0 -0 0 0 0 0 0 -0 -0 -0 -0 -0 -0 -0 -0
0 0 -0 -0 0 0 0 0 0 0 0 -0 0 -0 -0 -0 -0 0 0 -0 0 0 0 -0 -0 -0 0 0 -0 -0 0 -0 0 0 0 0 0 0 0 0 -0 -0 -0
-0 0 0 0 0 0 0 0 0 0 -0 0 0 -0 -0 -0 0 0 0 0 -0 -0 -0 -0 -0 -0 0 0 0 -0 0 -0 0 0 0 0 0 0 0 -0 -0 0 0
0 0 0 0 0 0 0 0 0 -0 0 0 0 0 -0 -0 -0 0 0 0 -0 0 -0 -0 0 0 -0 -0 -0 0 0 0 0 0 0 0 0 0 0 0 -0 0 -0
0 0 0 0 0 0 0 -0 -0 -0 -0 -0 0 0 -0 -0 -0 0 0 0 -0 -0 0 0 -0 0 -0 0 -0 -0 0 0 -0 0 0 0 0 0 0 -0 0 0 0
0 -0 -0 0 0 0 0 -0 0 -0 0 -0 0 0 0 0 -0 0 0 0 0 -0 0 -0 0 -0 -0 -0 0 -0 0 -0 -0 0 0 0 0 0 0 0 0 -0 -0
-0 0 0 0 0 0 0 -0 -0 -0 0 0 0 0 0 -0 0 0 0 0 0 0 -0 -0 -0 -0 -0 -0 -0 0 -0 -0 -0 -0 -0 -0 -0 -0 -0 -0 -0 -0 0
0 -0 -0 -0 -0 0 -0 -0 -0 0 -0 0 0 0 0 0 0 0 0 0 0 0 0 -0 -0 -0 -0 0 0 -0 -0 0 0 -0 -0 0 -0 -0 -0 -0 -0 -0 0
0 0 0 -0 -0 -0 -0 0 -0 -0 -0 -0 0 0 0 0 0 0 0 0 0 0 0 0 -0 -0 -0 0 0 0 0 0 0 -0 -0 0 0 -0 -0 -0 -0 -0 -0
-0 0 0 -0 0 0 0 0 -0 0 0 -0 0 0 0 0 0 0 0 0 0 0 0 0 -0 -0 -0 -0 -0 -0 -0 0 0 0 -0 -0 -0 -0 -0 -0 -0 -0 0
-0 -0 -0 -0 -0 -0 -0 0 0 0 0 0 0 0 0 0 0 0 0 0 0 0 0 0 0 -0 0 -0 -0 -0 0 0 0 0 -0 -0 -0 0 0 -0 0 -0 -0
-0 -0 -0 -1 -1 -1 -0 -0 -0 0 0 -0 -0 0 0 0 0 0 -0 -0 0 0 0 0 0 0 -0 -0 -0 -0 0 0 -0 0 0 -0 -0 -0 -0 -0 -0 -0 -0
Wind_Speed_500mb
28 33 30 27 25 26 24 23 22 20 22 22 21 21 21 23 22 22 23 24 24 25 29 34 36 37 38 42 44 46 44 44 45 46 46 48 49 51 47 31 39 43 44
38 36 30 26 25 24 23 21 19 18 18 18 17 16 14 18 18 19 21 23 22 26 28 32 35 33 37 39 39 42 42 41 41 41 44 46 46 43 41 30 35 39 40
41 41 35 28 28 27 24 18 16 16 16 17 15 14 13 17 20 19 22 23 25 28 32 33 35 33 33 37 40 45 49 53 55 47 35 30 35 35 32 27 33 33 34
41 38 37 30 27 25 23 17 16 16 15 13 12 14 15 17 19 20 26 25 28 36 34 34 32 32 33 36 43 48 47 42 45 43 31 29 29 28 25 28 31 30 32
42 34 35 29 25 23 21 19 16 14 15 15 13 10 15 19 22 27 30 29 33 39 36 31 31 31 32 36 42 44 41 43 37 34 25 22 29 34 31 32 31 32 25
44 33 33 30 28 24 19 19 17 16 15 16 16 11 21 27 29 31 32 32 36 36 35 34 32 30 31 35 44 44 41 33 33 22 26 21 25 31 32 29 26 24 23
46 26 34 33 30 24 20 20 20 19 18 20 24 31 39 37 34 34 31 31 33 33 32 30 29 29 31 36 44 46 43 40 25 30 19 20 27 28 28 25 26 24 24
37 34 35 34 29 25 21 19 21 21 20 22 27 31 36 36 34 34 31 30 30 31 30 28 28 27 30 32 37 38 34 36 27 25 20 26 27 26 26 25 25 24 24
41 34 35 34 31 26 22 21 21 20 22 21 23 28 31 30 29 29 31 28 29 30 29 25 23 27 29 31 33 37 27 40 25 19 19 26 30 29 28 28 25 24 22
42 34 26 30 30 23 20 19 20 20 19 20 18 20 22 23 22 21 21 25 26 27 28 23 20 27 29 32 34 36 33 24 30 33 18 25 30 30 28 27 26 26 26
45 36 33 26 24 18 7 18 20 21 20 19 17 18 24 21 16 10 16 15 21 21 22 19 17 20 27 29 38 40 37 34 22 33 21 26 27 30 29 27 26 24 25
49 40 38 33 36 27 17 10 19 17 11 8 9 5 13 11 19 18 12 11 16 19 16 13 11 15 29 30 30 33 27 12 29 16 27 27 27 29 28 27 26 24 23
46 44 38 34 26 23 19 7 11 11 6 6 12 7 10 12 6 13 9 15 16 10 8 5 11 9 52 28 31 38 23 35 19 20 25 24 23 26 27 26 27 26 24
34 47 20 30 35 16 16 6 5 0 10 12 10 9 2 15 9 15 12 18 22 6 13 26 8 11 4 36 53 30 25 37 23 13 26 25 22 22 27 25 22 24 23
36 33 37 18 28 25 17 18 10 11 6 13 11 6 4 18 23 19 10 12 19 14 10 11 3 5 3 18 20 21 27 19 14 14 25 26 27 22 17 25 21 22 24
41 35 34 33 33 19 28 28 12 8 6 4 6 10 6 15 2 7 12 9 13 16 16 14 12 6 13 26 15 33 28 30 17 10 20 16 17 16 19 16 17 16 20
44 35 44 32 33 37 24 33 20 16 3 10 20 17 6 14 15 14 8 11 12 16 16 11 9 16 10 23 12 13 22 21 16 10 3 13 15 10 19 18 15 14 20
53 42 28 28 22 26 31 22 23 10 11 18 16 11 19 11 11 8 3 8 9 17 18 12 11 10 20 15 15 20 23 16 16 15 7 6 11 11 13 18 19 25 23
65 52 39 29 35 29 22 22 19 13 13 11 17 17 16 11 5 8 9 12 18 20 25 21 19 25 17 24 24 22 12 20 21 22 17 8 8 10 12 12 15 24 24
57 57 49 43 39 42 29 13 11 14 17 14 10 14 22 10 8 11 13 13 7 8 21 23 21 25 22 25 19 20 18 10 20 11 26 18 7 11 8 13 19 22 24
49 54 63 49 43 32 29 27 22 21 17 18 19 15 12 6 9 13 15 12 7 15 9 34 24 32 25 23 16 20 17 19 28 19 19 26 18 14 10 11 17 17 22
62 67 67 53 44 42 32 35 23 17 21 18 15 16 15 19 18 13 16 15 13 19 18 20 29 30 25 17 30 24 18 27 29 35 21 29 29 28 28 9 11 14 17
62 64 59 52 44 42 43 22 21 24 20 21 23 24 26 25 27 21 20 18 18 17 21 17 29 36 34 31 34 20 14 15 15 38 27 39 27 40 37 19 17 16 19
61 56 56 62 49 36 35 38 33 21 28 27 22 23 28 25 25 23 23 24 26 26 20 15 13 29 34 37 38 40 25 12 11 28 30 31 26 20 42 29 25 30 25
55 58 65 52 46 37 39 46 35 36 30 18 29 28 30 29 32 28 29 24 24 26 23 20 17 18 32 33 42 33 24 16 7 27 32 36 36 33 42 34 28 37 38
59 65 61 56 57 49 47 46 45 39 38 35 41 37 34 37 30 18 29 20 22 21 25 21 23 22 31 41 34 35 35 34 22 23 18 29 49 37 43 36 37 29 30
Wind_Direction_500mb
153 143 145 144 134 124 117 114 107 93 86 85 89 98 108 104 94 91 88 95 99 106 108 104 97 98 100 105 106 107 108 108 108 104 102 104 101 96 86 88 96 95 95
148 140 139 146 141 135 130 120 108 88 84 84 86 94 105 108 107 102 91 97 108 111 115 111 104 103 107 109 109 105 100 98 98 104 107 105 106 108 111 125 101 99 95
138 135 131 133 133 134 131 123 107 94 84 78 79 93 107 116 124 109 102 102 108 121 122 117 110 106 108 108 106 102 102 101 95 83 91 102 103 108 107 104 100 102 99
136 138 137 131 130 131 130 124 105 92 86 77 78 95 104 120 128 114 110 104 105 125 125 119 112 108 109 107 107 111 106 102 104 99 88 92 104 104 106 104 98 96 99
133 138 141 138 132 128 126 119 106 91 75 73 78 106 126 128 123 122 115 108 110 121 119 119 119 113 113 114 112 111 100 93 98 100 103 92 106 106 102 98 101 101 101
141 152 140 135 131 128 126 121 105 92 82 81 78 76 147 139 128 125 119 115 118 121 115 117 117 118 116 117 119 112 101 96 96 123 137 129 111 114 109 107 105 105 112
144 146 141 135 133 127 126 115 102 96 90 94 85 93 121 129 127 125 123 122 122 120 122 120 117 118 119 120 122 120 113 104 113 112 122 116 116 110 111 111 110 106 111
146 143 148 137 134 129 121 112 100 95 96 100 100 106 119 126 127 130 127 128 130 129 129 125 117 119 122 122 126 125 122 119 140 148 145 119 117 113 115 114 113 111 111
134 148 154 144 139 137 123 117 106 98 102 108 112 116 121 125 128 131 132 133 132 131 132 129 132 131 124 120 126 124 118 123 125 135 128 125 118 115 115 116 111 110 118
145 145 154 152 138 141 129 116 106 92 92 105 115 123 122 116 119 126 128 131 131 133 127 126 125 144 130 117 124 131 115 110 109 120 108 119 121 119 117 113 109 110 113
157 152 155 161 142 142 133 106 97 93 85 89 104 119 117 104 120 132 134 145 141 135 126 126 119 136 139 118 127 132 125 132 148 146 138 127 125 120 119 118 114 112 112
163 163 162 157 145 152 163 68 59 91 54 66 130 164 141 155 153 166 174 155 139 137 129 126 144 144 153 148 144 148 143 168 157 142 138 136 132 125 119 117 118 116 117
148 161 168 162 140 164 183 114 101 168 176 338 358 201 91 139 203 137 172 161 113 115 116 123 147 173 117 161 153 149 138 138 148 121 135 140 135 128 125 127 126 127 126
165 162 166 146 148 163 165 193 113 71 138 264 315 346 164 144 195 194 189 141 132 155 174 213 171 242 330 144 160 133 133 155 162 163 147 147 135 133 130 132 131 133 131
164 179 168 170 167 168 180 156 218 251 188 293 320 349 201 210 211 184 209 179 134 189 191 206 199 346 231 211 154 121 126 166 186 165 168 161 154 145 133 136 137 144 143
175 177 176 168 176 187 178 183 172 231 185 219 267 286 266 265 84 200 271 298 180 197 190 153 196 232 200 137 155 164 172 171 175 196 204 193 166 165 182 144 135 152 154
178 195 171 182 213 205 205 199 180 183 219 246 247 262 222 254 251 250 251 272 238 201 194 105 210 206 149 130 155 134 143 161 199 197 222 193 182 176 183 199 205 183 169
184 166 160 184 213 198 213 198 203 184 256 246 234 235 261 258 246 222 154 224 236 227 184 194 256 203 204 204 155 179 192 161 177 216 201 150 158 177 180 184 200 197 188
192 175 167 189 193 217 219 216 197 186 235 256 233 245 253 213 211 223 219 220 227 237 210 222 218 234 189 173 204 190 201 202 194 185 215 207 172 134 158 178 184 184 191
197 199 198 196 197 215 233 192 213 205 234 210 256 266 281 218 220 231 221 236 282 206 207 224 215 213 180 170 197 189 209 206 194 183 194 192 169 164 161 163 180 187 198
197 189 199 195 217 207 197 206 219 219 230 241 250 280 318 351 239 235 236 242 222 168 222 224 214 206 229 188 188 186 202 231 212 203 195 208 209 214 178 192 161 167 199
200 196 203 202 222 206 201 204 217 220 231 241 243 251 222 250 251 238 229 215 194 205 215 211 220 212 223 198 202 191 219 224 238 225 207 206 223 215 206 186 212 192 205
203 201 204 212 213 207 211 213 209 211 234 250 230 240 250 255 247 240 232 223 223 234 219 230 219 218 217 205 205 201 197 223 229 206 207 210 202 220 208 192 211 229 219
204 207 201 220 209 215 205 205 218 230 232 230 224 236 246 252 273 243 235 227 227 235 225 235 231 219 223 210 202 211 227 235 156 200 218 201 211 227 196 205 222 225 225
198 202 206 222 224 224 227 212 218 221 238 258 244 246 238 244 257 250 236 233 228 226 229 226 193 191 222 221 210 211 231 239 170 197 214 211 201 212 215 244 220 210 234
197 202 205 214 215 231 219 232 223 220 232 233 239 227 235 255 245 263 247 244 231 224 231 236 229 216 203 211 206 206 230 224 217 216 214 218 205 214 206 229 229 235 220
Wind_Speed_850mb
28 33 30 27 25 26 24 23 22 20 22 22 21 21 21 23 22 22 23 24 24 25 29 34 36 37 38 42 44 46 44 44 45 46 46 48 49 51 47 31 39 43 44
38 36 30 26 25 24 23 21 19 18 18 18 17 16 14 18 18 19 21 23 22 26 28 32 35 33 37 39 39 42 42 41 41 41 44 46 46 43 41 30 35 39 40
41 41 35 28 28 27 24 18 16 16 16 17 15 14 13 17 20 19 22 23 25 28 32 33 35 33 33 37 40 45 49 53 55 47 35 30 35 35 32 27 33 33 34
41 38 37 30 27 25 23 17 16 16 15 13 12 14 15 17 19 20 26 25 28 36 34 34 32 32 33 36 43 48 47 42 45 43 31 29 29 28 25 28 31 30 32
42 34 35 29 25 23 21 19 16 14 15 15 13 10 15 19 22 27 30 29 33 39 36 31 31 31 32 36 42 44 41 43 37 34 25 22 29 34 31 32 31 32 25
44 33 33 30 28 24 19 19 17 16 15 16 16 11 21 27 29 31 32 32 36 36 35 34 32 30 31 35 44 44 41 33 33 22 26 21 25 31 32 29 26 24 23
46 26 34 33 30 24 20 20 20 19 18 20 24 31 39 37 34 34 31 31 33 33 32 30 29 29 31 36 44 46 43 40 25 30 19 20 27 28 28 25 26 24 24
37 34 35 34 29 25 21 19 21 21 20 22 27 31 36 36 34 34 31 30 30 31 30 28 28 27 30 32 37 38 34 36 27 25 20 26 27 26 26 25 25 24 24
41 34 35 34 31 26 22 21 21 20 22 21 23 28 31 30 29 29 31 28 29 30 29 25 23 27 29 31 33 37 27 40 25 19 19 26 30 29 28 28 25 24 22
42 34 26 30 30 23 20 19 20 20 19 20 18 20 22 23 22 21 21 25 26 27 28 23 20 27 29 32 34 36 33 24 30 33 18 25 30 30 28 27 26 26 26
45 36 33 26 24 18 7 18 20 21 20 19 17 18 24 21 16 10 16 15 21 21 22 19 17 20 27 29 38 40 37 34 22 33 21 26 27 30 29 27 26 24 25
49 40 38 33 36 27 17 10 19 17 11 8 9 5 13 11 19 18 12 11 16 19 16 13 11 15 29 30 30 33 27 12 29 16 27 27 27 29 28 27 26 24 23
46 44 38 34 26 23 19 7 11 11 6 6 12 7 10 12 6 13 9 15 16 10 8 5 11 9 52 28 31 38 23 35 19 20 25 24 23 26 27 26 27 26 24
34 47 20 30 35 16 16 6 5 0 10 12 10 9 2 15 9 15 12 18 22 6 13 26 8 11 4 36 53 30 25 37 23 13 26 25 22 22 27 25 22 24 23
36 33 37 18 28 25 17 18 10 11 6 13 11 6 4 18 23 19 10 12 19 14 10 11 3 5 3 18 20 21 27 19 14 14 25 26 27 22 17 25 21 22 24
41 35 34 33 33 19 28 28 12 8 6 4 6 10 6 15 2 7 12 9 13 16 16 14 12 6 13 26 15 33 28 30 17 10 20 16 17 16 19 16 17 16 20
44 35 44 32 33 37 24 33 20 16 3 10 20 17 6 14 15 14 8 11 12 16 16 11 9 16 10 23 12 13 22 21 16 10 3 13 15 10 19 18 15 14 20
53 42 28 28 22 26 31 22 23 10 11 18 16 11 19 11 11 8 3 8 9 17 18 12 11 10 20 15 15 20 23 16 16 15 7 6 11 11 13 18 19 25 23
65 52 39 29 35 29 22 22 19 13 13 11 17 17 16 11 5 8 9 12 18 20 25 21 19 25 17 24 24 22 12 20 21 22 17 8 8 10 12 12 15 24 24
57 57 49 43 39 42 29 13 11 14 17 14 10 14 22 10 8 11 13 13 7 8 21 23 21 25 22 25 19 20 18 10 20 11 26 18 7 11 8 13 19 22 24
49 54 63 49 43 32 29 27 22 21 17 18 19 15 12 6 9 13 15 12 7 15 9 34 24 32 25 23 16 20 17 19 28 19 19 26 18 14 10 11 17 17 22
62 67 67 53 44 42 32 35 23 17 21 18 15 16 15 19 18 13 16 15 13 19 18 20 29 30 25 17 30 24 18 27 29 35 21 29 29 28 28 9 11 14 17
62 64 59 52 44 42 43 22 21 24 20 21 23 24 26 25 27 21 20 18 18 17 21 17 29 36 34 31 34 20 14 15 15 38 27 39 27 40 37 19 17 16 19
61 56 56 62 49 36 35 38 33 21 28 27 22 23 28 25 25 23 23 24 26 26 20 15 13 29 34 37 38 40 25 12 11 28 30 31 26 20 42 29 25 30 25
55 58 65 52 46 37 39 46 35 36 30 18 29 28 30 29 32 28 29 24 24 26 23 20 17 18 32 33 42 33 24 16 7 27 32 36 36 33 42 34 28 37 38
59 65 61 56 57 49 47 46 45 39 38 35 41 37 34 37 30 18 29 20 22 21 25 21 23 22 31 41 34 35 35 34 22 23 18 29 49 37 43 36 37 29 30
Wind_Direction_850mb
153 143 145 144 134 124 117 114 107 93 86 85 89 98 108 104 94 91 88 95 99 106 108 104 97 98 100 105 106 107 108 108 108 104 102 104 101 96 86 88 96 95 95
148 140 139 146 141 135 130 120 108 88 84 84 86 94 105 108 107 102 91 97 108 111 115 111 104 103 107 109 109 105 100 98 98 104 107 105 106 108 111 125 101 99 95
138 135 131 133 133 134 131 123 107 94 84 78 79 93 107 116 124 109 102 102 108 121 122 117 110 106 108 108 106 102 102 101 95 83 91 102 103 108 107 104 100 102 99
136 138 137 131 130 131 130 124 105 92 86 77 78 95 104 120 128 114 110 104 105 125 125 119 112 108 109 107 107 111 106 102 104 99 88 92 104 104 106 104 98 96 99
133 138 141 138 132 128 126 119 106 91 75 73 78 106 126 128 123 122 115 108 110 121 119 119 119 113 113 114 112 111 100 93 98 100 103 92 106 106 102 98 101 101 101
141 152 140 135 131 128 126 121 105 92 82 81 78 76 147 139 128 125 119 115 118 121 115 117 117 118 116 117 119 112 101 96 96 123 137 129 111 114 109 107 105 105 112
144 146 141 135 133 127 126 115 102 96 90 94 85 93 121 129 127 125 123 122 122 120 122 120 117 118 119 120 122 120 113 104 113 112 122 116 116 110 111 111 110 106 111
146 143 148 137 134 129 121 112 100 95 96 100 100 106 119 126 127 130 127 128 130 129 129 125 117 119 122 122 126 125 122 119 140 148 145 119 117 113 115 114 113 111 111
134 148 154 144 139 137 123 117 106 98 102 108 112 116 121 125 128 131 132 133 132 131 132 129 132 131 124 120 126 124 118 123 125 135 128 125 118 115 115 116 111 110 118
145 145 154 152 138 141 129 116 106 92 92 105 115 123 122 116 119 126 128 131 131 133 127 126 125 144 130 117 124 131 115 110 109 120 108 119 121 119 117 113 109 110 113
157 152 155 161 142 142 133 106 97 93 85 89 104 119 117 104 120 132 134 145 141 135 126 126 119 136 139 118 127 132 125 132 148 146 138 127 125 120 119 118 114 112 112
163 163 162 157 145 152 163 68 59 91 54 66 130 164 141 155 153 166 174 155 139 137 129 126 144 144 153 148 144 148 143 168 157 142 138 136 132 125 119 117 118 116 117
148 161 168 162 140 164 183 114 101 168 176 338 358 201 91 139 203 137 172 161 113 115 116 123 147 173 117 161 153 149 138 138 148 121 135 140 135 128 125 127 126 127 126
165 162 166 146 148 163 165 193 113 71 138 264 315 346 164 144 195 194 189 141 132 155 174 213 171 242 330 144 160 133 133 155 162 163 147 147 135 133 130 132 131 133 131
164 179 168 170 167 168 180 156 218 251 188 293 320 349 201 210 211 184 209 179 134 189 191 206 199 346 231 211 154 121 126 166 186 165 168 161 154 145 133 136 137 144 143
175 177 176 168 176 187 178 183 172 231 185 219 267 286 266 265 84 200 271 298 180 197 190 153 196 232 200 137 155 164 172 171 175 196 204 193 166 165 182 144 135 152 154
178 195 171 182 213 205 205 199 180 183 219 246 247 262 222 254 251 250 251 272 238 201 194 105 210 206 149 130 155 134 143 161 199 197 222 193 182 176 183 199 205 183 169
184 166 160 184 213 198 213 198 203 184 256 246 234 235 261 258 246 222 154 224 236 227 184 194 256 203 204 204 155 179 192 161 177 216 201 150 158 177 180 184 200 197 188
192 175 167 189 193 217 219 216 197 186 235 256 233 245 253 213 211 223 219 220 227 237 210 222 218 234 189 173 204 190 201 202 194 185 215 207 172 134 158 178 184 184 191
197 199 198 196 197 215 233 192 213 205 234 210 256 266 281 218 220 231 221 236 282 206 207 224 215 213 180 170 197 189 209 206 194 183 194 192 169 164 161 163 180 187 198
197 189 199 195 217 207 197 206 219 219 230 241 250 280 318 351 239 235 236 242 222 168 222 224 214 206 229 188 188 186 202 231 212 203 195 208 209 214 178 192 161 167 199
200 196 203 202 222 206 201 204 217 220 231 241 243 251 222 250 251 238 229 215 194 205 215 211 220 212 223 198 202 191 219 224 238 225 207 206 223 215 206 186 212 192 205
203 201 204 212 213 207 211 213 209 211 234 250 230 240 250 255 247 240 232 223 223 234 219 230 219 218 217 205 205 201 197 223 229 206 207 210 202 220 208 192 211 229 219
204 207 201 220 209 215 205 205 218 230 232 230 224 236 246 252 273 243 235 227 227 235 225 235 231 219 223 210 202 211 227 235 156 200 218 201 211 227 196 205 222 225 225
198 202 206 222 224 224 227 212 218 221 238 258 244 246 238 244 257 250 236 233 228 226 229 226 193 191 222 221 210 211 231 239 170 197 214 211 201 212 215 244 220 210 234
197 202 205 214 215 231 219 232 223 220 232 233 239 227 235 255 245 263 247 244 231 224 231 236 229 216 203 211 206 206 230 224 217 216 214 218 205 214 206 229 229 235 220